Location: Izdebno
(52.6670°N, 16.2170°E)
Time: 04:15:21
(UTC+02:00)

Transit 2A - Pass Details

Date: 01 March 2024
Orbit: 596 x 956 km, 66.7° (Epoch: 21 April)

Event Time Altitude Azimuth Distance (km) Brightness Sun altitude
Rises 17:53:26 0° 186° (S) 2,845 9.1 -3.6°
Reaches altitude 10° 17:55:54 10° 175° (S) 1,933 8.1 -4.0°
Maximum altitude 17:59:35 28° 116° (ESE) 1,127 6.5 -4.6°
Drops below altitude 10° 18:03:20 10° 57° (ENE) 1,966 7.6 -5.1°
Sets 18:05:51 0° 46° (NE) 2,904 8.5 -5.5°
